Tracking 17938 objects as of 22-February-2017
HD Live streaming from Space Station
objects crossing your sky now

BREEZE-M DEB

Track BREEZE-M DEB now!
10-day predictions


NORAD ID: 34250
Int'l Code: 2006-006BR
Perigee: 498.6 km
Apogee: 14,739.2 km
Inclination: 51.7 °
Period: 274.5 minutes
Semi major axis: 13989 km
RCS: 0.0694 m2 (small)
Launch date: February 28, 2006
Source: Commonwealth of Independent States (former USSR) (CIS)
Launch site: TYURATAM MISSILE AND SPACE COMPLEX (TTMTR)

Note: This is SATELLITE DEBRIS
Your satellite tracking list
Your tracking list is empty





NASA's NSSDC Master Catalog

Two Line Element Set (TLE):
1 34250U 06006BR  17052.43227090  .00000388  00000-0  65748-3 0  9990
2 34250  51.6707 123.7702 5089596 333.6805   7.6003  5.24664363176036
Source of the keplerian elements: AFSPC